﻿測定場所 (Monitoring sites),日付 (Measurement date),時間 (Measurement time),線量率 最大値 (max) μGy/h,線量率 最小値 (min) μGy/h,線量率 平均値 (average) μGy/h,
足立 (Adachi),2012-05-27,23:01～24:00,0.0703,0.0616,0.0662,
足立 (Adachi),2012-05-27,22:01～23:00,0.0698,0.0624,0.0657,
足立 (Adachi),2012-05-27,21:01～22:00,0.0681,0.0623,0.0654,
足立 (Adachi),2012-05-27,20:01～21:00,0.0687,0.0624,0.0652,
足立 (Adachi),2012-05-27,19:01～20:00,0.0691,0.0613,0.0652,
足立 (Adachi),2012-05-27,18:01～19:00,0.0707,0.0616,0.0652,
足立 (Adachi),2012-05-27,17:01～18:00,0.0685,0.0611,0.0651,
足立 (Adachi),2012-05-27,16:01～17:00,0.0688,0.0620,0.0652,
足立 (Adachi),2012-05-27,15:01～16:00,0.0694,0.0617,0.0654,
足立 (Adachi),2012-05-27,14:01～15:00,0.0694,0.0627,0.0654,
足立 (Adachi),2012-05-27,13:01～14:00,0.0687,0.0622,0.0654,
足立 (Adachi),2012-05-27,12:01～13:00,0.0689,0.0609,0.0654,
足立 (Adachi),2012-05-27,11:01～12:00,0.0684,0.0621,0.0649,
足立 (Adachi),2012-05-27,10:01～11:00,0.0680,0.0608,0.0653,
足立 (Adachi),2012-05-27,09:01～10:00,0.0698,0.0625,0.0654,
足立 (Adachi),2012-05-27,08:01～09:00,0.0703,0.0615,0.0656,
足立 (Adachi),2012-05-27,07:01～08:00,0.0695,0.0617,0.0658,
足立 (Adachi),2012-05-27,06:01～07:00,0.0686,0.0614,0.0656,
足立 (Adachi),2012-05-27,05:01～06:00,0.0700,0.0614,0.0656,
足立 (Adachi),2012-05-27,04:01～05:00,0.0678,0.0616,0.0648,
足立 (Adachi),2012-05-27,03:01～04:00,0.0693,0.0620,0.0650,
足立 (Adachi),2012-05-27,02:01～03:00,0.0686,0.0618,0.0648,
足立 (Adachi),2012-05-27,01:01～02:00,0.0672,0.0611,0.0645,
足立 (Adachi),2012-05-27,00:01～01:00,0.0674,0.0605,0.0646,
足立 (Adachi),2012-05-26,23:01～24:00,0.0689,0.0626,0.0651,
足立 (Adachi),2012-05-26,22:01～23:00,0.0694,0.0614,0.0649,
足立 (Adachi),2012-05-26,21:01～22:00,0.0686,0.0613,0.0645,
足立 (Adachi),2012-05-26,20:01～21:00,0.0675,0.0615,0.0643,
足立 (Adachi),2012-05-26,19:01～20:00,0.0667,0.0620,0.0645,
足立 (Adachi),2012-05-26,18:01～19:00,0.0668,0.0619,0.0644,
足立 (Adachi),2012-05-26,17:01～18:00,0.0660,0.0612,0.0643,
足立 (Adachi),2012-05-26,16:01～17:00,0.0664,0.0620,0.0644,
足立 (Adachi),2012-05-26,15:01～16:00,0.0667,0.0614,0.0641,
足立 (Adachi),2012-05-26,14:01～15:00,0.0669,0.0615,0.0643,
足立 (Adachi),2012-05-26,13:01～14:00,0.0662,0.0616,0.0640,
足立 (Adachi),2012-05-26,12:01～13:00,0.0666,0.0621,0.0642,
足立 (Adachi),2012-05-26,11:01～12:00,0.0666,0.0622,0.0643,
足立 (Adachi),2012-05-26,10:01～11:00,0.0657,0.0613,0.0638,
足立 (Adachi),2012-05-26,09:01～10:00,0.0671,0.0619,0.0641,
足立 (Adachi),2012-05-26,08:01～09:00,0.0664,0.0603,0.0640,
足立 (Adachi),2012-05-26,07:01～08:00,0.0666,0.0599,0.0639,
足立 (Adachi),2012-05-26,06:01～07:00,0.0681,0.0599,0.0639,
足立 (Adachi),2012-05-26,05:01～06:00,0.0676,0.0598,0.0639,
足立 (Adachi),2012-05-26,04:01～05:00,0.0665,0.0594,0.0635,
足立 (Adachi),2012-05-26,03:01～04:00,0.0688,0.0611,0.0643,
足立 (Adachi),2012-05-26,02:01～03:00,0.0673,0.0612,0.0643,
足立 (Adachi),2012-05-26,01:01～02:00,0.0685,0.0619,0.0647,
足立 (Adachi),2012-05-26,00:01～01:00,0.0683,0.0604,0.0642,
足立 (Adachi),2012-05-25,23:01～24:00,0.0682,0.0612,0.0650,
足立 (Adachi),2012-05-25,22:01～23:00,0.0682,0.0611,0.0650,
足立 (Adachi),2012-05-25,21:01～22:00,0.0690,0.0595,0.0642,
足立 (Adachi),2012-05-25,20:01～21:00,0.0684,0.0593,0.0643,
足立 (Adachi),2012-05-25,19:01～20:00,0.0677,0.0619,0.0649,
足立 (Adachi),2012-05-25,18:01～19:00,0.0680,0.0602,0.0642,
足立 (Adachi),2012-05-25,17:01～18:00,0.0668,0.0586,0.0630,
足立 (Adachi),2012-05-25,16:01～17:00,0.0679,0.0601,0.0644,
足立 (Adachi),2012-05-25,15:01～16:00,0.0699,0.0630,0.0662,
足立 (Adachi),2012-05-25,14:01～15:00,0.0770,0.0658,0.0697,
足立 (Adachi),2012-05-25,13:01～14:00,0.0764,0.0690,0.0726,
足立 (Adachi),2012-05-25,12:01～13:00,0.0781,0.0690,0.0723,
足立 (Adachi),2012-05-25,11:01～12:00,0.0746,0.0647,0.0698,
足立 (Adachi),2012-05-25,10:01～11:00,0.0686,0.0603,0.0636,
足立 (Adachi),2012-05-25,09:01～10:00,0.0677,0.0593,0.0636,
足立 (Adachi),2012-05-25,08:01～09:00,0.0684,0.0605,0.0638,
足立 (Adachi),2012-05-25,07:01～08:00,0.0661,0.0593,0.0635,
足立 (Adachi),2012-05-25,06:01～07:00,0.0681,0.0610,0.0638,
足立 (Adachi),2012-05-25,05:01～06:00,0.0686,0.0606,0.0640,
足立 (Adachi),2012-05-25,04:01～05:00,0.0673,0.0585,0.0623,
足立 (Adachi),2012-05-25,03:01～04:00,0.0662,0.0597,0.0626,
足立 (Adachi),2012-05-25,02:01～03:00,0.0669,0.0592,0.0625,
足立 (Adachi),2012-05-25,01:01～02:00,0.0668,0.0582,0.0624,
足立 (Adachi),2012-05-25,00:01～01:00,0.0684,0.0591,0.0641,
足立 (Adachi),2012-05-24,23:01～24:00,0.0678,0.0609,0.0644,
足立 (Adachi),2012-05-24,22:01～23:00,0.0692,0.0610,0.0649,
足立 (Adachi),2012-05-24,21:01～22:00,0.0697,0.0596,0.0645,
足立 (Adachi),2012-05-24,20:01～21:00,0.0676,0.0604,0.0641,
足立 (Adachi),2012-05-24,19:01～20:00,0.0690,0.0604,0.0643,
足立 (Adachi),2012-05-24,18:01～19:00,0.0677,0.0613,0.0644,
足立 (Adachi),2012-05-24,17:01～18:00,0.0680,0.0599,0.0640,
足立 (Adachi),2012-05-24,16:01～17:00,0.0680,0.0608,0.0642,
足立 (Adachi),2012-05-24,15:01～16:00,0.0683,0.0608,0.0641,
足立 (Adachi),2012-05-24,14:01～15:00,0.0681,0.0602,0.0639,
足立 (Adachi),2012-05-24,13:01～14:00,0.0679,0.0600,0.0642,
足立 (Adachi),2012-05-24,12:01～13:00,0.0685,0.0579,0.0635,
足立 (Adachi),2012-05-24,11:01～12:00,0.0668,0.0601,0.0634,
足立 (Adachi),2012-05-24,10:01～11:00,0.0664,0.0602,0.0635,
足立 (Adachi),2012-05-24,09:01～10:00,0.0667,0.0583,0.0639,
足立 (Adachi),2012-05-24,08:01～09:00,0.0668,0.0603,0.0638,
足立 (Adachi),2012-05-24,07:01～08:00,0.0666,0.0592,0.0630,
足立 (Adachi),2012-05-24,06:01～07:00,0.0656,0.0590,0.0623,
足立 (Adachi),2012-05-24,05:01～06:00,0.0683,0.0594,0.0632,
足立 (Adachi),2012-05-24,04:01～05:00,0.0675,0.0599,0.0631,
足立 (Adachi),2012-05-24,03:01～04:00,0.0670,0.0601,0.0631,
足立 (Adachi),2012-05-24,02:01～03:00,0.0663,0.0603,0.0635,
足立 (Adachi),2012-05-24,01:01～02:00,0.0676,0.0596,0.0638,
足立 (Adachi),2012-05-24,00:01～01:00,0.0656,0.0610,0.0632,
足立 (Adachi),2012-05-23,23:01～24:00,0.0657,0.0596,0.0630,
足立 (Adachi),2012-05-23,22:01～23:00,0.0677,0.0595,0.0628,
足立 (Adachi),2012-05-23,21:01～22:00,0.0672,0.0593,0.0632,
足立 (Adachi),2012-05-23,20:01～21:00,0.0659,0.0594,0.0627,
足立 (Adachi),2012-05-23,19:01～20:00,0.0681,0.0581,0.0628,
足立 (Adachi),2012-05-23,18:01～19:00,0.0667,0.0590,0.0627,
足立 (Adachi),2012-05-23,17:01～18:00,0.0665,0.0596,0.0629,
足立 (Adachi),2012-05-23,16:01～17:00,0.0670,0.0599,0.0632,
足立 (Adachi),2012-05-23,15:01～16:00,0.0659,0.0586,0.0633,
足立 (Adachi),2012-05-23,14:01～15:00,0.0678,0.0605,0.0630,
足立 (Adachi),2012-05-23,13:01～14:00,0.0668,0.0598,0.0633,
足立 (Adachi),2012-05-23,12:01～13:00,0.0663,0.0597,0.0627,
足立 (Adachi),2012-05-23,11:01～12:00,0.0662,0.0591,0.0628,
足立 (Adachi),2012-05-23,10:01～11:00,0.0661,0.0590,0.0628,
足立 (Adachi),2012-05-23,09:01～10:00,0.0658,0.0584,0.0623,
足立 (Adachi),2012-05-23,08:01～09:00,0.0661,0.0581,0.0623,
足立 (Adachi),2012-05-23,07:01～08:00,0.0663,0.0565,0.0623,
足立 (Adachi),2012-05-23,06:01～07:00,0.0613,0.0558,0.0588,
足立 (Adachi),2012-05-23,05:01～06:00,0.0623,0.0551,0.0587,
足立 (Adachi),2012-05-23,04:01～05:00,0.0631,0.0566,0.0595,
足立 (Adachi),2012-05-23,03:01～04:00,0.0630,0.0557,0.0594,
足立 (Adachi),2012-05-23,02:01～03:00,0.0623,0.0555,0.0591,
足立 (Adachi),2012-05-23,01:01～02:00,0.0618,0.0550,0.0591,
足立 (Adachi),2012-05-23,00:01～01:00,0.0625,0.0565,0.0592,
足立 (Adachi),2012-05-22,23:01～24:00,0.0670,0.0567,0.0620,
足立 (Adachi),2012-05-22,22:01～23:00,0.0747,0.0634,0.0699,
足立 (Adachi),2012-05-22,21:01～22:00,0.0779,0.0670,0.0720,
足立 (Adachi),2012-05-22,20:01～21:00,0.0723,0.0643,0.0690,
足立 (Adachi),2012-05-22,19:01～20:00,0.0730,0.0655,0.0698,
足立 (Adachi),2012-05-22,18:01～19:00,0.0717,0.0622,0.0671,
足立 (Adachi),2012-05-22,17:01～18:00,0.0706,0.0620,0.0673,
足立 (Adachi),2012-05-22,16:01～17:00,0.0708,0.0632,0.0675,
足立 (Adachi),2012-05-22,15:01～16:00,0.0767,0.0665,0.0712,
足立 (Adachi),2012-05-22,14:01～15:00,0.0837,0.0729,0.0784,
足立 (Adachi),2012-05-22,13:01～14:00,0.0864,0.0741,0.0792,
足立 (Adachi),2012-05-22,12:01～13:00,0.0826,0.0665,0.0727,
足立 (Adachi),2012-05-22,11:01～12:00,0.0718,0.0622,0.0676,
足立 (Adachi),2012-05-22,10:01～11:00,0.0741,0.0616,0.0677,
足立 (Adachi),2012-05-22,09:01～10:00,0.0747,0.0679,0.0718,
足立 (Adachi),2012-05-22,08:01～09:00,0.0751,0.0655,0.0695,
足立 (Adachi),2012-05-22,07:01～08:00,0.0681,0.0617,0.0642,
足立 (Adachi),2012-05-22,06:01～07:00,0.0678,0.0606,0.0642,
足立 (Adachi),2012-05-22,05:01～06:00,0.0685,0.0596,0.0648,
足立 (Adachi),2012-05-22,04:01～05:00,0.0682,0.0625,0.0652,
足立 (Adachi),2012-05-22,03:01～04:00,0.0691,0.0623,0.0655,
足立 (Adachi),2012-05-22,02:01～03:00,0.0695,0.0625,0.0657,
足立 (Adachi),2012-05-22,01:01～02:00,0.0697,0.0625,0.0657,
足立 (Adachi),2012-05-22,00:01～01:00,0.0689,0.0614,0.0655,
足立 (Adachi),2012-05-21,23:01～24:00,0.0685,0.0624,0.0656,
足立 (Adachi),2012-05-21,22:01～23:00,0.0689,0.0619,0.0655,
足立 (Adachi),2012-05-21,21:01～22:00,0.0701,0.0618,0.0655,
足立 (Adachi),2012-05-21,20:01～21:00,0.0685,0.0632,0.0654,
足立 (Adachi),2012-05-21,19:01～20:00,0.0684,0.0615,0.0649,
足立 (Adachi),2012-05-21,18:01～19:00,0.0680,0.0616,0.0650,
足立 (Adachi),2012-05-21,17:01～18:00,0.0690,0.0624,0.0652,
足立 (Adachi),2012-05-21,16:01～17:00,0.0708,0.0621,0.0654,
足立 (Adachi),2012-05-21,15:01～16:00,0.0687,0.0617,0.0650,
足立 (Adachi),2012-05-21,14:01～15:00,0.0676,0.0608,0.0647,
足立 (Adachi),2012-05-21,13:01～14:00,0.0695,0.0611,0.0649,
足立 (Adachi),2012-05-21,12:01～13:00,0.0688,0.0621,0.0651,
足立 (Adachi),2012-05-21,11:01～12:00,0.0685,0.0616,0.0651,
足立 (Adachi),2012-05-21,10:01～11:00,0.0685,0.0616,0.0656,
足立 (Adachi),2012-05-21,09:01～10:00,0.0686,0.0628,0.0660,
足立 (Adachi),2012-05-21,08:01～09:00,0.0698,0.0636,0.0660,
足立 (Adachi),2012-05-21,07:01～08:00,0.0699,0.0633,0.0660,
足立 (Adachi),2012-05-21,06:01～07:00,0.0695,0.0620,0.0655,
足立 (Adachi),2012-05-21,05:01～06:00,0.0708,0.0612,0.0651,
足立 (Adachi),2012-05-21,04:01～05:00,0.0687,0.0613,0.0650,
足立 (Adachi),2012-05-21,03:01～04:00,0.0708,0.0614,0.0655,
足立 (Adachi),2012-05-21,02:01～03:00,0.0712,0.0601,0.0656,
足立 (Adachi),2012-05-21,01:01～02:00,0.0687,0.0623,0.0653,
足立 (Adachi),2012-05-21,00:01～01:00,0.0690,0.0629,0.0654,
